Home > Weather > Varel > Past weeks

Flag for Germany Past Weather in Varel, Lower Saxony, Germany — Yesterday and Last 2 Weeks

Now
59 °F

Cool.


Feels Like: 59 °F
Forecast: 55 / 67 °F
Wind: 2 mph from West

Location: Wittmundhaven

Current Time: Jul 31, 2016 at 5:37:27 AM

Latest Report: Jul 31, 2016 at 4:20 AM


Visibility: N/A

Pressure: 29.89 "Hg

Humidity: 94%

Dew Point: 57 °F

Location of VarelLocation

Past Weather in Varel — Graph

°F

Varel Temperature Yesterday

Maximum temperature yesterday: 68 °F (at 5:20 PM)
Minimum temperature yesterday: 59 °F (at 10:20 PM)
Average temperature yesterday: 64 °F

High & Low Weather Summary for the Past Weeks

 TemperatureHumidityPressure
High88 °F (Jul 20, 4:20 PM)100% (Jul 17, 1:20 AM)30.18 "Hg (Jul 17, 1:20 AM)
Low54 °F (Jul 26, 5:20 AM)40% (Jul 20, 6:20 PM)29.80 "Hg (Jul 29, 1:20 PM)
Average66 °F83%30.03 "Hg
* Reported Jul 16 4:20 AM — Jul 31 4:20 AM, Varel, Weather by CustomWeather, © 2016

Note: Actual official high and low records may vary slightly from our data, if they occured in-between our weather recording intervals... More about our weather records

Advertising

Varel Weather History for the Previous 24 Hours

Scroll right to see more
 ConditionsComfort  
Time TempWeatherWind HumidityBarometerVisibility
4:20 AM
Sun, Jul 31
59 °FCool.2 mph94%29.89 "HgN/A
3:20 AM59 °FCool.1 mph94%29.89 "HgN/A
2:20 AM59 °FCool.1 mph94%29.89 "Hg4 mi
1:20 AM59 °FCool.1 mph94%29.92 "Hg4 mi
12:20 AM59 °FCool.3 mph94%29.92 "Hg4 mi
11:20 PM
Sat, Jul 30
59 °FCool.2 mph94%29.92 "Hg5 mi
10:20 PM59 °FCool.2 mph88%29.92 "Hg6 mi
9:20 PM61 °FCool.3 mph83%29.92 "HgN/A
8:20 PM63 °FMild.5 mph77%29.92 "HgN/A
7:20 PM64 °FMild.7 mph68%29.92 "HgN/A
6:20 PM66 °FPassing clouds.9 mph68%29.92 "HgN/A
5:20 PM68 °FPassing clouds.8 mph64%29.92 "HgN/A
4:20 PM66 °FPassing clouds.8 mph64%29.89 "HgN/A
3:20 PM66 °FPassing clouds.10 mph68%29.89 "HgN/A
2:20 PM66 °FScattered clouds.10 mph73%29.89 "HgN/A
1:20 PM66 °FScattered clouds.10 mph78%29.86 "HgN/A
12:20 PM66 °FPartly sunny.9 mph83%29.86 "HgN/A
11:20 AM63 °FPartly sunny.8 mph94%29.86 "HgN/A
10:20 AM66 °FSprinkles. Partly sunny.9 mph78%29.83 "HgN/A
9:20 AM64 °FBroken clouds.8 mph88%29.83 "HgN/A
8:20 AM63 °FPartly sunny.5 mph94%29.80 "HgN/A
7:20 AM63 °FPartly sunny.9 mph94%29.80 "HgN/A
6:20 AM63 °FPassing clouds.9 mph94%29.80 "HgN/A
5:20 AM63 °FPartly cloudy.8 mph94%29.80 "HgN/A
Weather by CustomWeather, © 2016

See weather overviewHow to use our weather pages